Weather in Cali

Colombia     3°27′30″N   76°31′42″W
temp.,
°C
wind,
m/s
gust,
m/s
humid.,
%
clouds,
%
prec.,
mm/h
press.,
hPa
HPBL,
m
27 january, wed
wed2701:00+18nnw0190100 3.3 101280
04:00+18ne119285 1.2 101184
07:00+18se019289 1.8 101382
10:00+23ne117397 0.5 1013518
13:00+28n225356 0.9 10101288
16:00+25nw346549 1.1 1008647
19:00+20wnw248760 4.5 1011153
22:00+19wnw128873 2.2 101472
28 january, thu
thu2801:00+18nw119077 2.6 101363
04:00+18s019183 0.3 101262
07:00+18e119392 0.8 101478
10:00+23ese117685 0.6 1014499
13:00+28nne125350 1.3 10111280
16:00+25nw236693 1.9 1009780
19:00+20nw238554 4.9 1011130
22:00+19wnw118668 1.4 1014114
29 january, fri
fri2901:00+18sw018934 1.9 101385
04:00+17s019235 0.0 1011123
07:00+18ne009346 0.0 1012127
10:00+22e117644 0.0 1012544
13:00+28ne115245 0.2 10091173
16:00+27nnw125739 0.1 10061085
19:00+21wnw248370 1.4 1008187
22:00+20nw118778 0.8 101282
30 january, sat
sat3001:00+19nw118870 1.3 101188
04:00+18nnw018912 0.5 1010132
07:00+18sse018843 1.8 101192
10:00+23e117295 0.5 1012556
13:00+28ene115073 0.6 10091292
16:00+27nnw22550 0.3 10061152
19:00+21nw34782 1.6 1009169
22:00+19nw128520 1.1 101275
31 january, sun
sun3101:00+18nnw008648 1.8 101254
04:00+17se019091 0.1 101181
07:00+18se118994 0.1 1013124
10:00+23ese216888 0.0 1013595
13:00+29nne113987 0.1 10091304
16:00+26nnw335524 0.1 10071065
19:00+21nw248055 0.3 1010164
22:00+19wnw1184100 0.3 101397